Погода Красный Яр

Погода Красный Яр : погода сейчас, прогноз погоды и архив. Всё, что Вы хотите узнать о погоде Красный Яр!

Хотите узнать прогноз погоды Красный Яр? Тогда Вам сюда: Погода Красный Яр

Поиск расширенной информации на нашем сайте:

Другие новости

Новости СМИ2

Главная страница сайта

Новости сайта

02.10.2013

Напоминаем, что на нашем новом сайте вы можете получить высокодетализированные прогнозы погоды по пунктам России, СНГ и мира (включающие важные для авиации метеовеличины, такие как направление и скорость ветра, видимость, явления погоды, количество и форма облачности, нижняя и верхняя граница облачности), а также ознакомиться с разнообразными материалами по авиационной метеорологии и подборкой полезных ссылок на эту тему.

Сайт Метеоцентр.Азия посвящён разработке технологий оптимизации авиаметеорологического обслуживания, включая проектирование и перспективное создание нескольких автоматизированных авиаметеорологических систем:
- система выпуска высокодетальных прогностических карт явлений погоды для нижнего воздушного пространства по России и ближнему зарубежью;
- система верификации прогнозов TAF (выпускаемых синоптиками официальных АМСГ РФ и ближнего зарубежья) и AUTOTAF (выпускаемых сайтом Метеоцентр.Азия) - выявление ошибок, онлайн-сопоставление с фактической погодой METAR, автоматическое внесение коррективов в прогнозы при резком отклонении фактической погоды от прогноза, подсчёт оправдываемости прогнозов по элементам и в целом;
- система обработки, анализа и отображения авиаметеорологической информации для применения провайдерами метеорологической информации.

Рекомендуем: Самая детальная информация у нас на сайте: усыновление - смотрите тут.

Погода Красный Яр - сегодня

Время (UTC), дата Ветер
(°,м/с) 
Видим.   Явления Облачность Т
(°С)
Тd
(°С)
f(%) Тe
(°С)
Pmin
(гПа)
dP
(гПа)
Po
(мм)
O2
(г/м3)
Тmin Tmax R s Состояние
почвы
03 23.04.17 100 (В) 20000 м    8/0 верхняя 
[Ci fib]
+15.1 -3.8 27 +16  1011.5  -1.9  747  286           
06 23.04.17 220 (ЮЗ) 20000 м    8/0 верхняя 
[Ci fib]
+17.9 -3.5 23 +18  1009.9  -1.4  746  282           
09 23.04.17 190 (Ю) 20000 м    8/0 верхняя 
[Ci fib]
+15.1 -0.9 33 +16  1010.1  746  285    +18.4       
12 23.04.17 040 (СВ) 20000 м    8/0 верхняя 
[Ci fib]
+9.8 -1.5 45 +10  1013.3  2.8  748  291           
15 23.04.17 360 (С) 20000 м    3/0 верхняя 
[Ci fib]
+5 -1.8 61 +6  1014.8  1.3  749  297           
18 23.04.17 100 (В) 20000 м    3/0 верхняя 
[Ci fib]
+3.1 -2 69 +4  1015.1  0.1  749  299           
21 23.04.17 090 (В) 20000 м  в посл. час ливневой дождь  10/10 600 м кучево-дожд. 
[Cb cap]
+2.9 +1.7 92 +4  1016.6  1.6  750  299  +2.2    0.3    влажная 
00 24.04.17 210 (ЮЗ) 20000 м  {ливн. осадки}  6/6 600 м кучево-дожд. 
[Cb cap]
+8.5 +4.8 78 +8  1018.5  2.1  752  293           
03 24.04.17 240 (ЮЗ) 20000 м    4/4 600 м 
[Cu hum]
+14.3 +1.3 41 +14  1017.1  -1  751  287           
06 24.04.17 270 (З) 20000 м    4/4 600 м 
[Cu hum]
+17.4 -3.6 24 +18  1015.6  -1.4  750  285           
09 24.04.17 100 (В) 20000 м    10/10 600 м кучево-дожд. 
[Cb cap]
+14.5 -2.8 30 +16  1014.2  -1.5  749  287    +17.6       
12 24.04.17 190 (Ю) 3{11}  20000 м    10/10 600 м кучево-дожд. 
[Cb cap]
+10 +5.2 72 +10  1015.5  1.1  750  291           
15 24.04.17 130 (ЮВ) 20000 м    10/10 600 м кучево-дожд. 
[Cb cap]
+9.4 +3.1 65 +10  1013.8  -1.6  749  291           
18 24.04.17 010 (С) 10 км  слаб. ливневой дождь  10/10 600 м кучево-дожд. 
[Cb cap]
+6.4 +5.6 95 +7  1012.8  -1.2  748  293           
21 24.04.17 240 (ЮЗ) 20000 м  {ливн. осадки}  10/10 600 м кучево-дожд. 
[Cb cap]
+6.1 +5.8 98 +7  1010.9  -1.9  746  293  +5.7    0.8    влажная 
00 25.04.17 250 (З) 10 км  слаб. ливневой дождь  10/10 600 м кучево-дожд. 
[Cb cap]
+6.6 +5.7 94 +6  1012  1.1  747  293           
03 25.04.17 190 (Ю) 10 км  слаб. ливневой дождь  10/10 600 м кучево-дожд. 
[Cb cap]
+5.2 +4.4 95 +5  1012.7  0.7  748  295           
06 25.04.17 190 (Ю) 20000 м  {ливн. осадки}  8/6 600 м верхняя 
[Cu Sc|Ci fib]
+9.6 +4.6 71 +10  1010.2  -2.2  746  290           
09 25.04.17 210 (ЮЗ) 1{11}  20000 м  в посл. час ливневой дождь{гроза}  6/5 600 м кучево-дожд., верхняя 
[Cb cap|Ci fib]
+6 +4.4 89 +7  1011.1  0.6  746  294    +10.8     
12 25.04.17 тихо ()   20000 м    3/0 верхняя 
[Ci fib]
+0.4 +0.1 98 1011.9  0.5  747  300           
15 25.04.17 тихо ()   0500 м  туман  ясно 
+0.8 +0.6 99 +1  1011.8  0.1  747  300           
18 25.04.17 тихо ()   0500 м  туман  ясно 
+0.4 +0.2 99 1010.3  -1.5  746  300           
21 25.04.17 080 (В) 20000 м  в посл. час туман  8/8 600 м 
[Sc]
+0.5 +0.4 99 +1  1009.5  -0.8  745  300  +0.1        влажная 
00 26.04.17 230 (ЮЗ) 20000 м  {туман}  10/10 600 м кучево-дожд. 
[Cb cap]
+7.2 +3.4 77 +6  1007.6  -1.5  744  292           
03 26.04.17 250 (З) 10 км  слаб. ливневой дождь  10/10 600 м кучево-дожд. 
[Cb cap]
+5.6 +4.4 92 +5  1007.5  -0.2  744  293           
Время (UTC), дата Ветер
(°,м/с) 
Видим.   Явления Облачность Т
(°С)
Тd
(°С)
f(%) Тe
(°С)
Pmin
(гПа)
dP
(гПа)
Po
(мм)
O2
(г/м3)
Тmin Tmax R s Состояние
почвы

Для получения пояснительной информации подведите курсор к названию столбца.

ПОГОДА Красный Яр - архив

Всё, что Вы хотите узнать о погоде Красный Яр - удобно и подробно!

Выберите нужную дату (начиная с 1 января 2015* года) и нажмите кнопку "Найти".
Будут отображены архивные сводки погоды по пункту Красный Яр, начиная с указанной даты.


Отображать данные в формате CSV (для использования в таблицах Excel)


Внимание! Наш архив погоды предназначен исключительно для личного некоммерческого использования в познавательных целях. Если Вам необходимы официальные справки о состоянии погоды (для производственных, юридических, коммерческих и т.п. целей), обращайтесь в органы Росгидромета.

*Примечание: данная дата относится к архиву по метеостанциям СССР (Россия, СНГ, Балтия).
Архив по метеостанциям Зарубежной Европы и Азии (кроме Китая) хранится 10 дней, по другим регионам земного шара (Китай, Африка, Америка, Австралия, Океания) - 1 день.

Красный Яр - район местоположения метеостанции


Название, широта, долгота, высота метеостанции:
Красный Яр 46.5°ш. 135.3°д. 130 м над ур. моря [Российская Федерация]

Дополнительная информация

В oтличие oт бoльшинства пoгoдных сайтoв мы публикуем пoдрoбную метеoинфoрмацию в детальнoм прoфессиoнальнoм фoрмате.

Характеристики температуры и влажнoсти вoздуха измеряются на высoте 2 м в тени вдали oт зданий и деревьев.
Скoрoсть ветра измеряется на высoте 10 м (на урoвне рoста челoвека скoрoсть ветра ниже в 1.5-2 раза). Если метеoстанция нахoдится в гoрoде или в лесу, тo скoрoсть ветра занижена на 2-4 м/с пo сравнению с oткрытым местoм. Скoрoсть ветра над акватoриями крупных рек и oзёр, а также на вершинах хoлмoв на 2-5 м/с выше, чем в oбычных услoвиях.
Атмoсфернoе давление в разных тoчках местнoсти мoжет значительнo oтличаться oт давления на метеoстанции, в зависимoсти oт услoвий рельефа (при пoдъёме на 10 м давление пoнижается примернo на 1 мм рт.ст.).